contact:dominique.lefevre@mio.osupytheas.fr, maurice.libes@osupytheas.fr, didier.mallarino@osupytheas.fr
Project:EMSO http://www.emso-fr.org/EMSO-France
Depth: 2436.0 m
Title:EMSO Ligure Ouest : Data MII capteur MICROCAT
DateTime_Computer,Latitude,Longitude,Temperature,Conductivity,Pressure,DateTime_Instrument
DateTime_Computer,Latitude,Longitude,degC,S m-1,dbar,DateTime_Instrument
2019-10-24T00:00:59Z,42.805,6.029,13.2957,4.59960,2469.937,2019-10-24T02:01:25Z
2019-10-24T00:04:03Z,42.805,6.029,13.2963,4.59958,2469.96,2019-10-24T02:04:29Z
2019-10-24T00:07:06Z,42.805,6.029,13.2960,4.59960,2469.923,2019-10-24T02:07:32Z
2019-10-24T00:10:09Z,42.805,6.029,13.2962,4.59959,2469.923,2019-10-24T02:10:35Z
2019-10-24T00:13:12Z,42.805,6.029,13.2959,4.59958,2469.923,2019-10-24T02:13:38Z
2019-10-24T00:16:15Z,42.805,6.029,13.2959,4.59958,2469.923,2019-10-24T02:16:42Z
2019-10-24T00:19:19Z,42.805,6.029,13.2961,4.59959,2469.947,2019-10-24T02:19:45Z
2019-10-24T00:22:22Z,42.805,6.029,13.2958,4.59958,2469.923,2019-10-24T02:22:48Z
2019-10-24T00:25:25Z,42.805,6.029,13.2958,4.59958,2469.923,2019-10-24T02:25:51Z
2019-10-24T00:28:28Z,42.805,6.029,13.2957,4.59958,2469.9,2019-10-24T02:28:54Z
2019-10-24T00:31:31Z,42.805,6.029,13.2958,4.59959,2469.923,2019-10-24T02:31:58Z
2019-10-24T00:34:35Z,42.805,6.029,13.2959,4.59958,2469.914,2019-10-24T02:35:01Z
2019-10-24T00:37:38Z,42.805,6.029,13.2959,4.59958,2469.923,2019-10-24T02:38:04Z
2019-10-24T00:40:41Z,42.805,6.029,13.2955,4.59958,2469.937,2019-10-24T02:41:07Z
2019-10-24T00:43:44Z,42.805,6.029,13.2957,4.59959,2469.947,2019-10-24T02:44:10Z
2019-10-24T00:46:48Z,42.805,6.029,13.2959,4.59958,2469.947,2019-10-24T02:47:14Z
2019-10-24T00:49:51Z,42.805,6.029,13.2960,4.59957,2469.914,2019-10-24T02:50:17Z
2019-10-24T00:52:54Z,42.805,6.029,13.2958,4.59958,2469.96,2019-10-24T02:53:20Z
2019-10-24T00:55:57Z,42.805,6.029,13.2958,4.59958,2469.9,2019-10-24T02:56:23Z
2019-10-24T00:59:01Z,42.805,6.029,13.2959,4.59959,2469.937,2019-10-24T02:59:27Z
2019-10-24T01:02:04Z,42.805,6.029,13.2958,4.59957,2469.947,2019-10-24T03:02:30Z
2019-10-24T01:05:07Z,42.805,6.029,13.2958,4.59959,2469.9,2019-10-24T03:05:33Z
2019-10-24T01:08:10Z,42.805,6.029,13.2963,4.59958,2469.96,2019-10-24T03:08:36Z
2019-10-24T01:11:13Z,42.805,6.029,13.2959,4.59958,2469.937,2019-10-24T03:11:39Z
2019-10-24T01:14:17Z,42.805,6.029,13.2962,4.59958,2469.947,2019-10-24T03:14:43Z
2019-10-24T01:17:20Z,42.805,6.029,13.2961,4.59958,2469.96,2019-10-24T03:17:46Z
2019-10-24T01:20:23Z,42.805,6.029,13.2963,4.59958,2469.923,2019-10-24T03:20:49Z
2019-10-24T01:23:26Z,42.805,6.029,13.2956,4.59958,2469.923,2019-10-24T03:23:52Z
2019-10-24T01:26:30Z,42.805,6.029,13.2962,4.59957,2469.923,2019-10-24T03:26:56Z
2019-10-24T01:29:33Z,42.805,6.029,13.2958,4.59961,2469.947,2019-10-24T03:29:59Z
2019-10-24T01:32:36Z,42.805,6.029,13.2958,4.59957,2469.937,2019-10-24T03:33:02Z
2019-10-24T01:35:39Z,42.805,6.029,13.2957,4.59958,2469.947,2019-10-24T03:36:05Z
2019-10-24T01:38:43Z,42.805,6.029,13.2961,4.59959,2469.96,2019-10-24T03:39:09Z
2019-10-24T01:41:46Z,42.805,6.029,13.2961,4.59958,2469.947,2019-10-24T03:42:12Z
2019-10-24T01:44:49Z,42.805,6.029,13.2957,4.59958,2469.923,2019-10-24T03:45:15Z
2019-10-24T01:47:52Z,42.805,6.029,13.2958,4.59960,2469.97,2019-10-24T03:48:18Z
2019-10-24T01:50:56Z,42.805,6.029,13.2964,4.59959,2469.947,2019-10-24T03:51:22Z
2019-10-24T01:53:59Z,42.805,6.029,13.2960,4.59958,2469.984,2019-10-24T03:54:25Z
2019-10-24T01:57:02Z,42.805,6.029,13.2959,4.59958,2469.984,2019-10-24T03:57:28Z
2019-10-24T02:00:05Z,42.805,6.029,13.2957,4.59958,2469.96,2019-10-24T04:00:31Z
2019-10-24T02:03:08Z,42.805,6.029,13.2961,4.59961,2469.947,2019-10-24T04:03:35Z
2019-10-24T02:06:12Z,42.805,6.029,13.2959,4.59958,2469.984,2019-10-24T04:06:38Z
2019-10-24T02:09:15Z,42.805,6.029,13.2963,4.59960,2469.97,2019-10-24T04:09:41Z
2019-10-24T02:12:18Z,42.805,6.029,13.2962,4.59960,2469.97,2019-10-24T04:12:44Z
2019-10-24T02:15:21Z,42.805,6.029,13.2961,4.59958,2469.947,2019-10-24T04:15:47Z
2019-10-24T02:18:25Z,42.805,6.029,13.2964,4.59961,2469.97,2019-10-24T04:18:51Z
2019-10-24T02:21:28Z,42.805,6.029,13.2962,4.59958,2469.97,2019-10-24T04:21:54Z
2019-10-24T02:24:31Z,42.805,6.029,13.2959,4.59960,2470.007,2019-10-24T04:24:57Z
2019-10-24T02:27:34Z,42.805,6.029,13.2958,4.59958,2470.007,2019-10-24T04:28:00Z
2019-10-24T02:30:37Z,42.805,6.029,13.2960,4.59960,2469.947,2019-10-24T04:31:03Z
2019-10-24T02:33:41Z,42.805,6.029,13.2959,4.59960,2469.984,2019-10-24T04:34:07Z
2019-10-24T02:36:44Z,42.805,6.029,13.2962,4.59961,2469.97,2019-10-24T04:37:10Z
2019-10-24T02:39:47Z,42.805,6.029,13.2960,4.59958,2470.007,2019-10-24T04:40:13Z
2019-10-24T02:42:50Z,42.805,6.029,13.2961,4.59959,2469.984,2019-10-24T04:43:16Z
2019-10-24T02:45:54Z,42.805,6.029,13.2960,4.59958,2469.947,2019-10-24T04:46:20Z
2019-10-24T02:48:57Z,42.805,6.029,13.2961,4.59961,2469.947,2019-10-24T04:49:23Z
2019-10-24T02:52:00Z,42.805,6.029,13.2964,4.59961,2469.97,2019-10-24T04:52:26Z
2019-10-24T02:55:03Z,42.805,6.029,13.2957,4.59958,2469.97,2019-10-24T04:55:29Z
2019-10-24T02:58:07Z,42.805,6.029,13.2964,4.59962,2469.96,2019-10-24T04:58:33Z
2019-10-24T03:01:10Z,42.805,6.029,13.2959,4.59959,2469.97,2019-10-24T05:01:36Z
2019-10-24T03:04:13Z,42.805,6.029,13.2958,4.59960,2470.03,2019-10-24T05:04:39Z
2019-10-24T03:07:16Z,42.805,6.029,13.2962,4.59959,2469.97,2019-10-24T05:07:42Z
2019-10-24T03:10:19Z,42.805,6.029,13.2960,4.59964,2470.007,2019-10-24T05:10:45Z
2019-10-24T03:13:23Z,42.805,6.029,13.2961,4.59961,2469.993,2019-10-24T05:13:49Z
2019-10-24T03:16:26Z,42.805,6.029,13.2961,4.59958,2469.97,2019-10-24T05:16:52Z
2019-10-24T03:19:29Z,42.805,6.029,13.2961,4.59961,2469.97,2019-10-24T05:19:55Z
2019-10-24T03:22:32Z,42.805,6.029,13.2962,4.59958,2470.007,2019-10-24T05:22:58Z
2019-10-24T03:25:36Z,42.805,6.029,13.2961,4.59961,2469.993,2019-10-24T05:26:02Z
2019-10-24T03:28:39Z,42.805,6.029,13.2964,4.59961,2470.017,2019-10-24T05:29:05Z
2019-10-24T03:31:42Z,42.805,6.029,13.2960,4.59962,2469.993,2019-10-24T05:32:08Z
2019-10-24T03:34:45Z,42.805,6.029,13.2961,4.59958,2470.007,2019-10-24T05:35:11Z
2019-10-24T03:37:48Z,42.805,6.029,13.2960,4.59963,2470.007,2019-10-24T05:38:14Z
2019-10-24T03:40:52Z,42.805,6.029,13.2962,4.59959,2470.007,2019-10-24T05:41:18Z
2019-10-24T03:43:55Z,42.805,6.029,13.2967,4.59960,2470.03,2019-10-24T05:44:21Z
2019-10-24T03:46:58Z,42.805,6.029,13.2961,4.59963,2470.017,2019-10-24T05:47:24Z
2019-10-24T03:50:01Z,42.805,6.029,13.2961,4.59961,2470.007,2019-10-24T05:50:27Z
2019-10-24T03:53:04Z,42.805,6.029,13.2964,4.59960,2470.007,2019-10-24T05:53:31Z
2019-10-24T03:56:08Z,42.805,6.029,13.2960,4.59961,2470.007,2019-10-24T05:56:34Z
2019-10-24T03:59:11Z,42.805,6.029,13.2964,4.59958,2470.007,2019-10-24T05:59:37Z
2019-10-24T04:02:14Z,42.805,6.029,13.2960,4.59959,2469.984,2019-10-24T06:02:40Z
2019-10-24T04:05:17Z,42.805,6.029,13.2960,4.59958,2470.017,2019-10-24T06:05:43Z
2019-10-24T04:08:21Z,42.805,6.029,13.2957,4.59958,2470.007,2019-10-24T06:08:47Z
2019-10-24T04:11:24Z,42.805,6.029,13.2962,4.59958,2469.96,2019-10-24T06:11:50Z
2019-10-24T04:14:27Z,42.805,6.029,13.2960,4.59960,2470.017,2019-10-24T06:14:53Z
2019-10-24T04:17:30Z,42.805,6.029,13.2965,4.59958,2470.007,2019-10-24T06:17:57Z
2019-10-24T04:20:34Z,42.805,6.029,13.2960,4.59962,2470.007,2019-10-24T06:21:00Z
2019-10-24T04:23:38Z,42.805,6.029,13.2956,4.59959,2469.993,2019-10-24T06:24:04Z
2019-10-24T04:26:41Z,42.805,6.029,13.2962,4.59958,2469.984,2019-10-24T06:27:07Z
2019-10-24T04:29:44Z,42.805,6.029,13.2958,4.59958,2469.993,2019-10-24T06:30:10Z
2019-10-24T04:32:47Z,42.805,6.029,13.2958,4.59960,2469.97,2019-10-24T06:33:13Z
2019-10-24T04:35:51Z,42.805,6.029,13.2958,4.59960,2469.993,2019-10-24T06:36:17Z
2019-10-24T04:38:54Z,42.805,6.029,13.2959,4.59957,2469.97,2019-10-24T06:39:20Z
2019-10-24T04:41:57Z,42.805,6.029,13.2961,4.59958,2469.97,2019-10-24T06:42:23Z
2019-10-24T04:45:00Z,42.805,6.029,13.2957,4.59960,2469.984,2019-10-24T06:45:26Z
2019-10-24T04:48:03Z,42.805,6.029,13.2957,4.59959,2469.956,2019-10-24T06:48:30Z
2019-10-24T04:51:07Z,42.805,6.029,13.2962,4.59960,2469.993,2019-10-24T06:51:33Z
2019-10-24T04:54:10Z,42.805,6.029,13.2968,4.59958,2470.007,2019-10-24T06:54:36Z
2019-10-24T04:57:13Z,42.805,6.029,13.2960,4.59961,2469.984,2019-10-24T06:57:39Z
2019-10-24T05:00:17Z,42.805,6.029,13.2962,4.59960,2469.97,2019-10-24T07:00:43Z
2019-10-24T05:03:20Z,42.805,6.029,13.2959,4.59958,2470.007,2019-10-24T07:03:46Z
2019-10-24T05:06:23Z,42.805,6.029,13.2962,4.59958,2469.984,2019-10-24T07:06:49Z
2019-10-24T05:09:26Z,42.805,6.029,13.2961,4.59960,2469.96,2019-10-24T07:09:52Z
2019-10-24T05:12:29Z,42.805,6.029,13.2958,4.59960,2469.937,2019-10-24T07:12:56Z
2019-10-24T05:15:33Z,42.805,6.029,13.2957,4.59958,2469.993,2019-10-24T07:15:59Z
2019-10-24T05:18:36Z,42.805,6.029,13.2961,4.59961,2469.984,2019-10-24T07:19:02Z
2019-10-24T05:21:39Z,42.805,6.029,13.2958,4.59960,2469.947,2019-10-24T07:22:05Z
2019-10-24T05:24:42Z,42.805,6.029,13.2964,4.59958,2469.97,2019-10-24T07:25:08Z
2019-10-24T05:27:46Z,42.805,6.029,13.2960,4.59961,2469.923,2019-10-24T07:28:12Z
2019-10-24T05:30:49Z,42.805,6.029,13.2961,4.59959,2469.97,2019-10-24T07:31:15Z
2019-10-24T05:33:52Z,42.805,6.029,13.2957,4.59960,2469.97,2019-10-24T07:34:18Z
2019-10-24T05:36:55Z,42.805,6.029,13.2959,4.59958,2469.97,2019-10-24T07:37:21Z
2019-10-24T05:39:58Z,42.805,6.029,13.2964,4.59960,2469.947,2019-10-24T07:40:24Z
2019-10-24T05:43:02Z,42.805,6.029,13.2963,4.59960,2469.947,2019-10-24T07:43:28Z
2019-10-24T05:46:05Z,42.805,6.029,13.2961,4.59961,2469.947,2019-10-24T07:46:31Z
2019-10-24T05:49:08Z,42.805,6.029,13.2961,4.59960,2469.984,2019-10-24T07:49:34Z
2019-10-24T05:52:11Z,42.805,6.029,13.2961,4.59966,2469.984,2019-10-24T07:52:37Z
2019-10-24T05:55:14Z,42.805,6.029,13.2961,4.59960,2469.984,2019-10-24T07:55:41Z
2019-10-24T05:58:18Z,42.805,6.029,13.2961,4.59958,2469.984,2019-10-24T07:58:44Z
2019-10-24T06:01:21Z,42.805,6.029,13.2960,4.59958,2469.97,2019-10-24T08:01:47Z
2019-10-24T06:04:24Z,42.805,6.029,13.2961,4.59964,2469.96,2019-10-24T08:04:50Z
2019-10-24T06:07:27Z,42.805,6.029,13.2957,4.59958,2469.993,2019-10-24T08:07:53Z
2019-10-24T06:10:31Z,42.805,6.029,13.2961,4.59964,2469.97,2019-10-24T08:10:57Z
2019-10-24T06:13:34Z,42.805,6.029,13.2962,4.59960,2469.947,2019-10-24T08:14:00Z
2019-10-24T06:16:37Z,42.805,6.029,13.2961,4.59960,2469.993,2019-10-24T08:17:03Z
2019-10-24T06:19:40Z,42.805,6.029,13.2958,4.59958,2469.97,2019-10-24T08:20:06Z
2019-10-24T06:22:43Z,42.805,6.029,13.2959,4.59959,2469.984,2019-10-24T08:23:09Z
2019-10-24T06:25:46Z,42.805,6.029,13.2961,4.59959,2469.96,2019-10-24T08:26:13Z
2019-10-24T06:28:50Z,42.805,6.029,13.2959,4.59958,2469.97,2019-10-24T08:29:16Z
2019-10-24T06:31:53Z,42.805,6.029,13.2958,4.59966,2469.947,2019-10-24T08:32:19Z
2019-10-24T06:34:56Z,42.805,6.029,13.2962,4.59962,2469.96,2019-10-24T08:35:22Z
2019-10-24T06:38:00Z,42.805,6.029,13.2962,4.59961,2469.993,2019-10-24T08:38:26Z
2019-10-24T06:41:03Z,42.805,6.029,13.2964,4.59958,2469.96,2019-10-24T08:41:29Z
2019-10-24T06:44:06Z,42.805,6.029,13.2957,4.59960,2469.947,2019-10-24T08:44:32Z
2019-10-24T06:47:09Z,42.805,6.029,13.2961,4.59961,2469.96,2019-10-24T08:47:35Z
2019-10-24T06:50:13Z,42.805,6.029,13.2960,4.59960,2469.993,2019-10-24T08:50:39Z
2019-10-24T06:53:16Z,42.805,6.029,13.2960,4.59960,2469.947,2019-10-24T08:53:42Z
2019-10-24T06:56:19Z,42.805,6.029,13.2964,4.59962,2469.947,2019-10-24T08:56:45Z
2019-10-24T06:59:22Z,42.805,6.029,13.2967,4.59960,2469.97,2019-10-24T08:59:48Z
2019-10-24T07:02:25Z,42.805,6.029,13.2962,4.59958,2469.947,2019-10-24T09:02:52Z
2019-10-24T07:05:29Z,42.805,6.029,13.2958,4.59960,2469.956,2019-10-24T09:05:55Z
2019-10-24T07:08:32Z,42.805,6.029,13.2961,4.59959,2469.97,2019-10-24T09:08:58Z
2019-10-24T07:11:35Z,42.805,6.029,13.2963,4.59961,2469.984,2019-10-24T09:12:01Z
2019-10-24T07:14:38Z,42.805,6.029,13.2959,4.59961,2469.947,2019-10-24T09:15:04Z
2019-10-24T07:17:42Z,42.805,6.029,13.2958,4.59959,2469.947,2019-10-24T09:18:08Z
2019-10-24T07:20:45Z,42.805,6.029,13.2958,4.59961,2469.96,2019-10-24T09:21:11Z
2019-10-24T07:23:48Z,42.805,6.029,13.2957,4.59959,2469.947,2019-10-24T09:24:14Z
2019-10-24T07:26:51Z,42.805,6.029,13.2960,4.59964,2469.96,2019-10-24T09:27:17Z
2019-10-24T07:29:54Z,42.805,6.029,13.2963,4.59960,2469.96,2019-10-24T09:30:20Z
2019-10-24T07:32:58Z,42.805,6.029,13.2960,4.59961,2469.96,2019-10-24T09:33:24Z
2019-10-24T07:36:01Z,42.805,6.029,13.2961,4.59958,2469.947,2019-10-24T09:36:27Z
2019-10-24T07:39:04Z,42.805,6.029,13.2960,4.59961,2469.923,2019-10-24T09:39:30Z
2019-10-24T07:42:07Z,42.805,6.029,13.2964,4.59961,2469.937,2019-10-24T09:42:34Z
2019-10-24T07:45:11Z,42.805,6.029,13.2961,4.59962,2469.937,2019-10-24T09:45:37Z
2019-10-24T07:48:14Z,42.805,6.029,13.2962,4.59960,2469.96,2019-10-24T09:48:40Z
2019-10-24T07:51:17Z,42.805,6.029,13.2961,4.59962,2469.96,2019-10-24T09:51:43Z
2019-10-24T07:54:20Z,42.805,6.029,13.2961,4.59963,2469.947,2019-10-24T09:54:46Z
2019-10-24T07:57:24Z,42.805,6.029,13.2961,4.59960,2469.923,2019-10-24T09:57:50Z
2019-10-24T08:00:27Z,42.805,6.029,13.2958,4.59958,2469.947,2019-10-24T10:00:53Z
2019-10-24T08:03:30Z,42.805,6.029,13.2963,4.59959,2469.914,2019-10-24T10:03:56Z
2019-10-24T08:06:33Z,42.805,6.029,13.2964,4.59958,2469.914,2019-10-24T10:06:59Z
2019-10-24T08:09:36Z,42.805,6.029,13.2961,4.59960,2469.9,2019-10-24T10:10:03Z
2019-10-24T08:12:40Z,42.805,6.029,13.2962,4.59962,2469.937,2019-10-24T10:13:06Z
2019-10-24T08:15:43Z,42.805,6.029,13.2958,4.59959,2469.9,2019-10-24T10:16:09Z
2019-10-24T08:18:46Z,42.805,6.029,13.2958,4.59961,2469.914,2019-10-24T10:19:12Z
2019-10-24T08:21:49Z,42.805,6.029,13.2962,4.59963,2469.9,2019-10-24T10:22:15Z
2019-10-24T08:24:53Z,42.805,6.029,13.2959,4.59961,2469.923,2019-10-24T10:25:19Z
2019-10-24T08:27:56Z,42.805,6.029,13.2959,4.59959,2469.9,2019-10-24T10:28:22Z
2019-10-24T08:30:59Z,42.805,6.029,13.2963,4.59958,2469.914,2019-10-24T10:31:25Z
2019-10-24T08:34:03Z,42.805,6.029,13.2960,4.59961,2469.923,2019-10-24T10:34:29Z
2019-10-24T08:37:06Z,42.805,6.029,13.2962,4.59960,2469.9,2019-10-24T10:37:32Z
2019-10-24T08:40:09Z,42.805,6.029,13.2960,4.59961,2469.876,2019-10-24T10:40:35Z
2019-10-24T08:43:12Z,42.805,6.029,13.2959,4.59960,2469.9,2019-10-24T10:43:38Z
2019-10-24T09:08:08Z,42.805,6.029,13.2961,4.59959,2469.914,2019-10-24T11:08:34Z
2019-10-24T09:11:11Z,42.805,6.029,13.2960,4.59961,2469.876,2019-10-24T11:11:37Z
2019-10-24T09:14:14Z,42.805,6.029,13.2959,4.59962,2469.923,2019-10-24T11:14:40Z
2019-10-24T09:17:18Z,42.805,6.029,13.2961,4.59961,2469.9,2019-10-24T11:17:44Z
2019-10-24T09:20:21Z,42.805,6.029,13.2961,4.59962,2469.876,2019-10-24T11:20:47Z
2019-10-24T09:23:24Z,42.805,6.029,13.2960,4.59960,2469.853,2019-10-24T11:23:50Z
2019-10-24T09:26:27Z,42.805,6.029,13.2958,4.59961,2469.876,2019-10-24T11:26:53Z
2019-10-24T09:29:30Z,42.805,6.029,13.2961,4.59959,2469.867,2019-10-24T11:29:57Z
2019-10-24T09:32:34Z,42.805,6.029,13.2963,4.59958,2469.89,2019-10-24T11:33:00Z
2019-10-24T09:35:37Z,42.805,6.029,13.2960,4.59958,2469.876,2019-10-24T11:36:03Z
2019-10-24T09:38:40Z,42.805,6.029,13.2961,4.59964,2469.876,2019-10-24T11:39:06Z
2019-10-24T09:41:43Z,42.805,6.029,13.2965,4.59960,2469.876,2019-10-24T11:42:09Z
2019-10-24T09:44:47Z,42.805,6.029,13.2961,4.59960,2469.89,2019-10-24T11:45:13Z
2019-10-24T09:47:50Z,42.805,6.029,13.2959,4.59961,2469.867,2019-10-24T11:48:16Z
2019-10-24T09:50:53Z,42.805,6.029,13.2960,4.59960,2469.853,2019-10-24T11:51:19Z
2019-10-24T09:53:56Z,42.805,6.029,13.2961,4.59960,2469.876,2019-10-24T11:54:22Z
2019-10-24T09:56:59Z,42.805,6.029,13.2965,4.59960,2469.89,2019-10-24T11:57:25Z
2019-10-24T10:00:03Z,42.805,6.029,13.2962,4.59959,2469.876,2019-10-24T12:00:29Z
2019-10-24T10:03:06Z,42.805,6.029,13.2958,4.59960,2469.89,2019-10-24T12:03:32Z
2019-10-24T10:06:09Z,42.805,6.029,13.2963,4.59962,2469.867,2019-10-24T12:06:35Z
2019-10-24T10:09:12Z,42.805,6.029,13.2960,4.59960,2469.853,2019-10-24T12:09:38Z
2019-10-24T10:12:16Z,42.805,6.029,13.2961,4.59961,2469.89,2019-10-24T12:12:42Z
2019-10-24T10:15:19Z,42.805,6.029,13.2961,4.59961,2469.89,2019-10-24T12:15:45Z
2019-10-24T10:18:22Z,42.805,6.029,13.2961,4.59964,2469.853,2019-10-24T12:18:48Z
2019-10-24T10:21:25Z,42.805,6.029,13.2962,4.59960,2469.876,2019-10-24T12:21:51Z
2019-10-24T10:24:29Z,42.805,6.029,13.2961,4.59961,2469.876,2019-10-24T12:24:55Z
2019-10-24T10:27:32Z,42.805,6.029,13.2962,4.59960,2469.89,2019-10-24T12:27:58Z
2019-10-24T10:30:35Z,42.805,6.029,13.2960,4.59966,2469.853,2019-10-24T12:31:01Z
2019-10-24T10:33:38Z,42.805,6.029,13.2958,4.59961,2469.867,2019-10-24T12:34:04Z
2019-10-24T10:36:41Z,42.805,6.029,13.2964,4.59961,2469.844,2019-10-24T12:37:07Z
2019-10-24T10:39:45Z,42.805,6.029,13.2964,4.59961,2469.853,2019-10-24T12:40:11Z
2019-10-24T10:42:48Z,42.805,6.029,13.2958,4.59961,2469.9,2019-10-24T12:43:14Z
2019-10-24T10:45:51Z,42.805,6.029,13.2964,4.59961,2469.89,2019-10-24T12:46:17Z
2019-10-24T10:48:54Z,42.805,6.029,13.2963,4.59962,2469.876,2019-10-24T12:49:20Z
2019-10-24T10:51:58Z,42.805,6.029,13.2959,4.59961,2469.876,2019-10-24T12:52:24Z
2019-10-24T10:55:01Z,42.805,6.029,13.2963,4.59961,2469.876,2019-10-24T12:55:27Z
2019-10-24T10:58:04Z,42.805,6.029,13.2963,4.59961,2469.853,2019-10-24T12:58:30Z
2019-10-24T11:01:07Z,42.805,6.029,13.2961,4.59961,2469.89,2019-10-24T13:01:33Z
2019-10-24T11:04:10Z,42.805,6.029,13.2961,4.59961,2469.89,2019-10-24T13:04:36Z
2019-10-24T11:07:14Z,42.805,6.029,13.2961,4.59961,2469.9,2019-10-24T13:07:40Z
2019-10-24T11:10:17Z,42.805,6.029,13.2961,4.59961,2469.89,2019-10-24T13:10:43Z
2019-10-24T11:13:20Z,42.805,6.029,13.2961,4.59961,2469.876,2019-10-24T13:13:46Z
2019-10-24T11:16:23Z,42.805,6.029,13.2959,4.59960,2469.867,2019-10-24T13:16:49Z
2019-10-24T11:19:26Z,42.805,6.029,13.2961,4.59961,2469.876,2019-10-24T13:19:53Z
2019-10-24T11:22:30Z,42.805,6.029,13.2962,4.59961,2469.89,2019-10-24T13:22:56Z
2019-10-24T11:25:33Z,42.805,6.029,13.2961,4.59960,2469.89,2019-10-24T13:25:59Z
2019-10-24T11:28:36Z,42.805,6.029,13.2960,4.59960,2469.9,2019-10-24T13:29:02Z
2019-10-24T11:31:39Z,42.805,6.029,13.2960,4.59960,2469.89,2019-10-24T13:32:05Z
2019-10-24T11:34:42Z,42.805,6.029,13.2961,4.59960,2469.9,2019-10-24T13:35:09Z
2019-10-24T11:37:46Z,42.805,6.029,13.2961,4.59958,2469.9,2019-10-24T13:38:12Z
2019-10-24T11:40:49Z,42.805,6.029,13.2961,4.59961,2469.904,2019-10-24T13:41:15Z
2019-10-24T11:43:52Z,42.805,6.029,13.2962,4.59960,2469.876,2019-10-24T13:44:18Z
2019-10-24T11:46:55Z,42.805,6.029,13.2962,4.59961,2469.876,2019-10-24T13:47:21Z
2019-10-24T11:49:59Z,42.805,6.029,13.2958,4.59959,2469.914,2019-10-24T13:50:25Z
2019-10-24T11:53:02Z,42.805,6.029,13.2959,4.59958,2469.876,2019-10-24T13:53:28Z
2019-10-24T11:56:05Z,42.805,6.029,13.2958,4.59958,2469.89,2019-10-24T13:56:31Z
2019-10-24T11:59:08Z,42.805,6.029,13.2962,4.59959,2469.923,2019-10-24T13:59:34Z
2019-10-24T12:02:12Z,42.805,6.029,13.2962,4.59960,2469.89,2019-10-24T14:02:38Z
2019-10-24T12:05:15Z,42.805,6.029,13.2959,4.59960,2469.914,2019-10-24T14:05:41Z
2019-10-24T12:08:18Z,42.805,6.029,13.2961,4.59960,2469.937,2019-10-24T14:08:44Z
2019-10-24T12:11:21Z,42.805,6.029,13.2964,4.59962,2469.876,2019-10-24T14:11:48Z
2019-10-24T12:14:25Z,42.805,6.029,13.2963,4.59958,2469.89,2019-10-24T14:14:51Z
2019-10-24T12:17:28Z,42.805,6.029,13.2959,4.59959,2469.876,2019-10-24T14:17:54Z
2019-10-24T12:20:31Z,42.805,6.029,13.2958,4.59958,2469.9,2019-10-24T14:20:57Z
2019-10-24T12:23:34Z,42.805,6.029,13.2961,4.59958,2469.9,2019-10-24T14:24:00Z
2019-10-24T12:26:37Z,42.805,6.029,13.2960,4.59958,2469.951,2019-10-24T14:27:03Z
2019-10-24T12:29:41Z,42.805,6.029,13.2961,4.59959,2469.923,2019-10-24T14:30:07Z
2019-10-24T12:32:44Z,42.805,6.029,13.2959,4.59960,2469.923,2019-10-24T14:33:10Z
2019-10-24T12:35:47Z,42.805,6.029,13.2961,4.59959,2469.923,2019-10-24T14:36:13Z
2019-10-24T12:38:50Z,42.805,6.029,13.2963,4.59961,2469.914,2019-10-24T14:39:16Z
2019-10-24T12:41:54Z,42.805,6.029,13.2961,4.59958,2469.933,2019-10-24T14:42:20Z
2019-10-24T12:44:57Z,42.805,6.029,13.2964,4.59960,2469.937,2019-10-24T14:45:23Z
2019-10-24T12:48:00Z,42.805,6.029,13.2958,4.59964,2469.9,2019-10-24T14:48:26Z
2019-10-24T12:51:03Z,42.805,6.029,13.2958,4.59960,2469.937,2019-10-24T14:51:30Z
2019-10-24T12:54:07Z,42.805,6.029,13.2962,4.59961,2469.923,2019-10-24T14:54:33Z
2019-10-24T12:57:10Z,42.805,6.029,13.2962,4.59959,2469.937,2019-10-24T14:57:36Z
2019-10-24T13:00:13Z,42.805,6.029,13.2961,4.59960,2469.947,2019-10-24T15:00:39Z
2019-10-24T13:03:16Z,42.805,6.029,13.2959,4.59961,2469.96,2019-10-24T15:03:43Z
2019-10-24T13:06:20Z,42.805,6.029,13.2966,4.59959,2469.923,2019-10-24T15:06:46Z
2019-10-24T13:09:23Z,42.805,6.029,13.2960,4.59960,2469.947,2019-10-24T15:09:49Z
2019-10-24T13:12:26Z,42.805,6.029,13.2957,4.59959,2469.96,2019-10-24T15:12:52Z
2019-10-24T13:15:29Z,42.805,6.029,13.2961,4.59961,2469.947,2019-10-24T15:15:55Z
2019-10-24T13:18:33Z,42.805,6.029,13.2961,4.59960,2469.97,2019-10-24T15:18:59Z
2019-10-24T13:21:36Z,42.805,6.029,13.2961,4.59959,2469.937,2019-10-24T15:22:02Z
2019-10-24T13:24:39Z,42.805,6.029,13.2957,4.59959,2469.956,2019-10-24T15:25:05Z
2019-10-24T13:27:42Z,42.805,6.029,13.2958,4.59959,2469.97,2019-10-24T15:28:08Z
2019-10-24T13:30:46Z,42.805,6.029,13.2960,4.59960,2469.947,2019-10-24T15:31:12Z
2019-10-24T13:33:49Z,42.805,6.029,13.2959,4.59960,2469.96,2019-10-24T15:34:15Z
2019-10-24T13:36:52Z,42.805,6.029,13.2961,4.59959,2469.984,2019-10-24T15:37:18Z
2019-10-24T13:39:55Z,42.805,6.029,13.2957,4.59960,2470.007,2019-10-24T15:40:21Z
2019-10-24T13:42:59Z,42.805,6.029,13.2961,4.59960,2470.007,2019-10-24T15:43:25Z
2019-10-24T13:46:02Z,42.805,6.029,13.2964,4.59961,2469.97,2019-10-24T15:46:28Z
2019-10-24T13:49:05Z,42.805,6.029,13.2964,4.59960,2470.017,2019-10-24T15:49:31Z
2019-10-24T13:52:08Z,42.805,6.029,13.2962,4.59960,2469.96,2019-10-24T15:52:35Z
2019-10-24T13:55:12Z,42.805,6.029,13.2961,4.59959,2469.97,2019-10-24T15:55:38Z
2019-10-24T13:58:15Z,42.805,6.029,13.2961,4.59961,2470.017,2019-10-24T15:58:41Z
2019-10-24T14:01:18Z,42.805,6.029,13.2960,4.59962,2470.007,2019-10-24T16:01:44Z
2019-10-24T14:04:21Z,42.805,6.029,13.2959,4.59960,2470.017,2019-10-24T16:04:47Z
2019-10-24T14:07:25Z,42.805,6.029,13.2961,4.59960,2470.017,2019-10-24T16:07:51Z
2019-10-24T14:10:28Z,42.805,6.029,13.2961,4.59960,2470.017,2019-10-24T16:10:54Z
2019-10-24T14:13:31Z,42.805,6.029,13.2964,4.59960,2470.007,2019-10-24T16:13:57Z
2019-10-24T14:16:34Z,42.805,6.029,13.2965,4.59960,2470.04,2019-10-24T16:17:00Z
2019-10-24T14:19:38Z,42.805,6.029,13.2963,4.59961,2470.007,2019-10-24T16:20:04Z
2019-10-24T14:22:41Z,42.805,6.029,13.2963,4.59960,2470.017,2019-10-24T16:23:07Z
2019-10-24T14:25:44Z,42.805,6.029,13.2961,4.59961,2470.017,2019-10-24T16:26:10Z
2019-10-24T14:28:47Z,42.805,6.029,13.2961,4.59960,2469.993,2019-10-24T16:29:13Z
2019-10-24T14:31:50Z,42.805,6.029,13.2959,4.59960,2470.063,2019-10-24T16:32:17Z
2019-10-24T14:34:54Z,42.805,6.029,13.2961,4.59960,2470.017,2019-10-24T16:35:20Z
2019-10-24T14:37:57Z,42.805,6.029,13.2959,4.59961,2470.017,2019-10-24T16:38:23Z
2019-10-24T14:41:00Z,42.805,6.029,13.2959,4.59960,2470.03,2019-10-24T16:41:26Z
2019-10-24T14:44:03Z,42.805,6.029,13.2961,4.59961,2470.017,2019-10-24T16:44:30Z
2019-10-24T14:47:07Z,42.805,6.029,13.2961,4.59960,2470.04,2019-10-24T16:47:33Z
2019-10-24T14:50:10Z,42.805,6.029,13.2961,4.59960,2470.017,2019-10-24T16:50:36Z
2019-10-24T14:53:13Z,42.805,6.029,13.2960,4.59961,2470.04,2019-10-24T16:53:39Z
2019-10-24T14:56:16Z,42.805,6.029,13.2962,4.59961,2470.063,2019-10-24T16:56:43Z
2019-10-24T14:59:20Z,42.805,6.029,13.2965,4.59961,2470.067,2019-10-24T16:59:46Z
2019-10-24T15:02:23Z,42.805,6.029,13.2964,4.59961,2470.04,2019-10-24T17:02:49Z
2019-10-24T15:05:26Z,42.805,6.029,13.2962,4.59961,2470.053,2019-10-24T17:05:52Z
2019-10-24T15:08:29Z,42.805,6.029,13.2958,4.59961,2470.03,2019-10-24T17:08:56Z
2019-10-24T15:11:33Z,42.805,6.029,13.2963,4.59963,2470.04,2019-10-24T17:11:59Z
2019-10-24T15:14:36Z,42.805,6.029,13.2964,4.59962,2470.04,2019-10-24T17:15:02Z
2019-10-24T15:17:39Z,42.805,6.029,13.2962,4.59961,2470.04,2019-10-24T17:18:05Z
2019-10-24T15:20:43Z,42.805,6.029,13.2957,4.59961,2470.077,2019-10-24T17:21:09Z
2019-10-24T15:23:46Z,42.805,6.029,13.2961,4.59961,2470.053,2019-10-24T17:24:12Z